Time,TemperatureF,DewpointF,PressureIn,WindDirection,WindDirectionDegrees,WindSpeedMPH,WindSpeedGustMPH,Humidity,HourlyPrecipIn,Conditions,Clouds,dailyrainin,SoftwareType,DateUTC
2013-08-23 00:21:00,62.0,62.0,-100.00,South,180,0.0,0.0,100,0.00,,,0.00,,2013-08-23 07:21:00,
2013-08-23 00:52:00,63.0,63.0,-100.00,South,180,0.0,0.0,100,0.00,,,0.00,,2013-08-23 07:52:00,
2013-08-23 01:22:00,62.0,62.0,-100.00,South,180,0.0,0.0,100,0.00,,,0.00,,2013-08-23 08:22:00,
2013-08-23 01:52:00,61.0,61.0,-100.00,South,180,0.0,0.0,100,0.00,,,0.00,,2013-08-23 08:52:00,
2013-08-23 02:21:00,62.0,62.0,-100.00,South,180,0.0,0.0,100,0.00,,,0.00,,2013-08-23 09:21:00,
2013-08-23 02:53:00,62.0,62.0,-100.00,South,180,0.0,0.0,100,0.00,,,0.00,,2013-08-23 09:53:00,
2013-08-23 04:22:00,61.0,61.0,-100.00,South,180,0.0,0.0,100,0.00,,,0.00,,2013-08-23 11:22:00,
2013-08-23 04:53:00,61.0,61.0,-100.00,South,180,0.0,0.0,100,0.00,,,0.00,,2013-08-23 11:53:00,
2013-08-23 05:21:00,61.0,61.0,-100.00,South,180,0.0,0.0,100,0.00,,,0.00,,2013-08-23 12:21:00,
2013-08-23 05:52:00,59.0,59.0,-100.00,South,180,0.0,0.0,100,0.00,,,0.00,,2013-08-23 12:52:00,
2013-08-23 06:22:00,58.0,58.0,-100.00,South,180,0.0,0.0,100,0.00,,,0.00,,2013-08-23 13:22:00,
2013-08-23 06:52:00,57.0,57.0,-100.00,South,180,0.0,0.0,100,0.00,,,0.00,,2013-08-23 13:52:00,
2013-08-23 07:21:00,57.0,57.0,-100.00,South,180,0.0,0.0,100,0.00,,,0.00,,2013-08-23 14:21:00,
2013-08-23 07:52:00,60.0,60.0,-100.00,South,180,0.0,0.0,100,0.00,,,0.00,,2013-08-23 14:52:00,
2013-08-23 08:21:00,60.0,60.0,-100.00,South,180,0.0,0.0,100,0.00,,,0.00,,2013-08-23 15:21:00,
2013-08-23 08:54:00,63.0,63.0,-100.00,South,180,0.0,0.0,100,0.00,,,0.00,,2013-08-23 15:54:00,
2013-08-23 09:24:00,63.0,63.0,-100.00,South,180,0.0,0.0,100,0.00,,,0.00,,2013-08-23 16:24:00,
2013-08-23 21:24:00,63.0,63.0,-100.00,South,180,0.0,0.0,100,0.00,,,0.00,,2013-08-24 04:24:00,
2013-08-23 21:53:00,62.0,62.0,-100.00,South,180,0.0,0.0,100,0.00,,,0.00,,2013-08-24 04:53:00,
2013-08-23 22:23:00,61.0,61.0,-100.00,South,180,0.0,0.0,100,0.00,,,0.00,,2013-08-24 05:23:00,
2013-08-23 22:53:00,61.0,61.0,-100.00,South,180,0.0,0.0,100,0.00,,,0.00,,2013-08-24 05:53:00,
2013-08-23 23:21:00,60.0,60.0,-100.00,South,180,0.0,0.0,100,0.00,,,0.00,,2013-08-24 06:21:00,
2013-08-23 23:52:00,62.0,62.0,-100.00,South,180,0.0,0.0,100,0.00,,,0.00,,2013-08-24 06:52:00,